Regional Weather Roundup
Issued by NWS

Home | Current Version | Previous Version | Text Only | Print | Product List | Glossary On
Versions: 1 2 3 4 5 6 7 8 9 10 11 12 13 14 15 16 17 18 19 20 21 22 23 24 25 26 27 28 29 30 31 32 33 34 35 36 37 38 39 40 41 42 43 44 45 46 47 48 49 50
494
ASUS42 KFFC 022110
RWRGA
WEATHER ROUNDUP FOR GEORGIA
NATIONAL WEATHER SERVICE PEACHTREE CITY GA
400 PM EST FRI DEC 02 2016

NOTE: "FAIR" INDICATES FEW OR NO CLOUDS BELOW 12,000 FEET WITH NO
SIGNIFICANT WEATHER AND/OR OBSTRUCTIONS TO VISIBILITY.

* = USE WITH CAUTION. THE STATIONS MARKED WITH AN ASTERISK MAY NOT
REPORT WEATHER SUCH AS PRECIPITATION, FOG, OR THUNDER AND ARE NOT
QUALITY CONTROLLED BY NWS.

THE REMARK "TC" DENOTES TEMPERATURE READING IN DEGREES CELSIUS.

GAZ001>058-022200-
NORTH GEORGIA

CITY           SKY/WX    TMP DP  RH WIND       PRES   REMARKS
ATLANTA        FAIR      59  25  27 N14       30.20S
ATHENS         FAIR      63  26  24 NW12G17   30.16S
CHAMBLEE       FAIR      57  26  30 NW13      30.20R
PEACHTREE CITY FAIR      60  28  29 N9        30.22R
ROME           FAIR      60  27  28 NW7       30.21R
WEST ATLANTA   FAIR      59  25  27 N9G18     30.21R
GAINESVILLE    FAIR      59  26  28 NW12G20   30.17S
CARTERSVILLE   FAIR      57  27  31 N6        30.22S


CITY           SKY/WX    TMP DP  RH WIND       PRES   REMARKS
DALTON*        FAIR      57  32  38 NW6       30.21S
LAWRENCEVILLE* SUNNY     61  28  29 W12       30.17R
MARIETTA       MOSUNNY   58  25  28 NW12      30.20R
KENNESAW*      SUNNY     55  25  30 NW6       30.23R
CANTON*        FAIR      55  14  19 NW6G17    30.20S
$$

GAZ059>098-102>109-022200-
CENTRAL GEORGIA

CITY           SKY/WX    TMP DP  RH WIND       PRES   REMARKS
AUGUSTA-BUSH   FAIR      63  30  28 N6        30.16S
AUGUSTA-DANIEL FAIR      62  29  28 NW6       30.17S
COLUMBUS       FAIR      62  27  26 N6        30.21R
MACON          FAIR      63  28  26 N12       30.18F
ROBINS AFB     FAIR      63  28  25 N7        30.17F


CITY           SKY/WX    TMP DP  RH WIND       PRES   REMARKS
LAGRANGE*      FAIR      62  34  35 NW8       30.22R
SYLVANIA*      FAIR     N/A N/A N/A N6        30.17S
MILLEDGEVILLE* FAIR      63  34  34 CALM      30.19S
$$

GAZ099>101-110>166-022200-
SOUTH GEORGIA

CITY           SKY/WX    TMP DP  RH WIND       PRES   REMARKS
SAVANNAH       FAIR      62  34  35 NW10      30.16R
VALDOSTA       FAIR      66  27  23 N12       30.15S
ALMA           FAIR      64  32  30 VRB6      30.16S
ST SIMONS      FAIR      66  34  30 VRB5      30.14S
FT STEWART     FAIR      64  35  34 NW7       30.13S
ALBANY         FAIR      66  26  22 N7        30.20R
HUNTER AFB     FAIR      63  42  46 NW10      30.13R
MOODY AFB      FAIR      66  28  23 N14       30.14S
BRUNSWICK      FAIR      66  41  39 NW6       30.15S


CITY           SKY/WX    TMP DP  RH WIND       PRES   REMARKS
BAINBRIDGE*    FAIR      66  32  28 N7        30.19R
MOULTRIE*      FAIR      64  32  29 N9        30.18R
VIDALIA*       FAIR      64  37  36 N9        30.17S
WAYCROSS*      FAIR      68  35  30 N10G16    30.15S
DOUGLAS*       FAIR      64  30  27 N7        30.18R
$$




USA.gov is the U.S. government's official web portal to all federal, state and local government web resources and services.